| time (UTC) | temp C | wind direction | speed KPH | gust KPH | rain 1hr cm | rain 24hr cm | rain mn cm | humidity % | barometer mb |
| 20260903084506 | 21 | 157 | 0.0 | 3.2 | 0.00 | 0.08 | 0.00 | 90 | 1007.6 |
| 20260903084006 | 21 | 157 | 1.6 | 3.2 | 0.00 | 0.08 | 0.00 | 90 | 1007.8 |
| 20260903083506 | 21 | 157 | 0.0 | 0.0 | 0.00 | 0.08 | 0.00 | 90 | 1007.5 |
| 20260903083006 | 21 | 157 | 0.0 | 0.0 | 0.00 | 0.08 | 0.00 | 90 | 1007.4 |
| 20260903082505 | 21 | 157 | 0.0 | 0.0 | 0.00 | 0.08 | 0.00 | 90 | 1007.4 |
| 20260903082006 | 21 | 157 | 0.0 | 0.0 | 0.00 | 0.08 | 0.00 | 90 | 1007.5 |
| 20260903081506 | 22 | 157 | 0.0 | 0.0 | 0.00 | 0.08 | 0.00 | 90 | 1007.6 |
| 20260903081006 | 22 | 157 | 0.0 | 0.0 | 0.00 | 0.08 | 0.00 | 90 | 1007.5 |
| 20260903080006 | 22 | 157 | 0.0 | 3.2 | 0.00 | 0.08 | 0.00 | 90 | 1007.3 |
| 20260903075506 | 22 | 157 | 0.0 | 0.0 | 0.00 | 0.08 | 0.00 | 90 | 1007.3 |
| 20260903075006 | 22 | 157 | 0.0 | 0.0 | 0.00 | 0.08 | 0.00 | 90 | 1007.2 |
| 20260903074506 | 22 | 157 | 0.0 | 0.0 | 0.00 | 0.08 | 0.00 | 90 | 1007.2 |
| 20260903074006 | 22 | 157 | 0.0 | 0.0 | 0.00 | 0.08 | 0.00 | 89 | 1007.2 |
| 20260903073506 | 22 | 157 | 0.0 | 0.0 | 0.00 | 0.08 | 0.00 | 89 | 1007.2 |
| 20260903073006 | 22 | 157 | 0.0 | 0.0 | 0.00 | 0.08 | 0.00 | 89 | 1007.3 |
| 20260903072006 | 22 | 157 | 0.0 | 0.0 | 0.00 | 0.08 | 0.00 | 89 | 1007.4 |
| 20260903071505 | 22 | 157 | 0.0 | 1.6 | 0.00 | 0.08 | 0.00 | 89 | 1007.4 |
| 20260903071006 | 22 | 157 | 0.0 | 3.2 | 0.00 | 0.08 | 0.00 | 89 | 1007.4 |
| 20260903070506 | 22 | 157 | 0.0 | 3.2 | 0.00 | 0.08 | 0.00 | 89 | 1007.4 |
| 20260903070005 | 22 | 157 | 0.0 | 3.2 | 0.00 | 0.10 | 0.00 | 89 | 1007.5 |
| 20260903065006 | 22 | 157 | 0.0 | 3.2 | 0.00 | 0.13 | 0.00 | 89 | 1007.6 |
| 20260903064505 | 22 | 157 | 0.0 | 1.6 | 0.00 | 0.15 | 0.00 | 89 | 1007.6 |
| 20260903064006 | 22 | 157 | 0.0 | 1.6 | 0.00 | 0.23 | 0.00 | 88 | 1007.6 |
| 20260903063506 | 22 | 157 | 0.0 | 0.0 | 0.00 | 0.61 | 0.00 | 88 | 1007.6 |
| 20260903063006 | 22 | 157 | 0.0 | 0.0 | 0.00 | 0.86 | 0.00 | 88 | 1007.6 |
| 20260903062505 | 22 | 157 | 0.0 | 1.6 | 0.00 | 0.86 | 0.00 | 88 | 1007.7 |
| 20260903062005 | 22 | 157 | 0.0 | 3.2 | 0.00 | 0.86 | 0.00 | 88 | 1007.8 |
| 20260903061506 | 22 | 157 | 0.0 | 3.2 | 0.00 | 0.86 | 0.00 | 88 | 1007.8 |
| 20260903060006 | 22 | 157 | 0.0 | 1.6 | 0.00 | 0.86 | 0.00 | 89 | 1007.8 |
| 20260903055505 | 22 | 157 | 0.0 | 1.6 | 0.00 | 0.86 | 0.00 | 89 | 1007.9 |
| 20260903055006 | 22 | 157 | 0.0 | 1.6 | 0.00 | 0.86 | 0.00 | 89 | 1007.9 |
| 20260903054505 | 22 | 157 | 0.0 | 1.6 | 0.00 | 0.86 | 0.00 | 89 | 1007.8 |
| 20260903054006 | 22 | 157 | 0.0 | 0.0 | 0.00 | 0.86 | 0.00 | 89 | 1007.9 |
| 20260903053006 | 23 | 157 | 0.0 | 3.2 | 0.00 | 0.86 | 0.00 | 89 | 1007.9 |
| 20260903052506 | 23 | 157 | 0.0 | 3.2 | 0.00 | 0.86 | 0.00 | 89 | 1007.9 |
| 20260903052006 | 23 | 157 | 0.0 | 1.6 | 0.00 | 0.86 | 0.00 | 88 | 1008.0 |
| 20260903050006 | 23 | 157 | 0.0 | 3.2 | 0.00 | 0.86 | 0.00 | 88 | 1008.0 |
| 20260903044505 | 23 | 157 | 0.0 | 1.6 | 0.00 | 0.86 | 0.86 | 87 | 1008.0 |
| 20260903044006 | 23 | 157 | 1.6 | 3.2 | 0.00 | 0.89 | 0.86 | 87 | 1008.0 |
| 20260903043506 | 23 | 157 | 0.0 | 0.0 | 0.00 | 0.89 | 0.86 | 87 | 1008.0 |
| 20260903043006 | 23 | 157 | 0.0 | 3.2 | 0.00 | 0.89 | 0.86 | 87 | 1008.0 |
| 20260903042505 | 23 | 157 | 1.6 | 3.2 | 0.00 | 0.89 | 0.86 | 87 | 1008.0 |
| 20260903042005 | 23 | 157 | 1.6 | 3.2 | 0.00 | 0.89 | 0.86 | 87 | 1008.0 |
| 20260903041006 | 23 | 157 | 1.6 | 3.2 | 0.00 | 0.89 | 0.86 | 86 | 1008.1 |
| 20260903040506 | 23 | 157 | 0.0 | 1.6 | 0.00 | 0.89 | 0.86 | 86 | 1008.1 |
| 20260903040008 | 23 | 157 | 0.0 | 3.2 | 0.00 | 0.89 | 0.86 | 86 | 1008.1 |
| 20260903035505 | 23 | 157 | 0.0 | 1.6 | 0.00 | 0.89 | 0.86 | 86 | 1008.1 |
| 20260903035006 | 23 | 157 | 0.0 | 1.6 | 0.00 | 0.89 | 0.86 | 86 | 1008.2 |
| 20260903034505 | 23 | 157 | 0.0 | 1.6 | 0.00 | 0.89 | 0.86 | 86 | 1008.2 |
| 20260903034006 | 23 | 157 | 0.0 | 0.0 | 0.00 | 0.89 | 0.86 | 86 | 1008.2 |
| 20260903033506 | 23 | 157 | 0.0 | 0.0 | 0.00 | 0.89 | 0.86 | 85 | 1008.3 |
| 20260903033005 | 23 | 157 | 0.0 | 0.0 | 0.00 | 0.89 | 0.86 | 85 | 1008.3 |
| 20260903032006 | 23 | 157 | 0.0 | 0.0 | 0.00 | 0.89 | 0.86 | 85 | 1008.3 |
| 20260903031506 | 23 | 157 | 0.0 | 0.0 | 0.00 | 0.89 | 0.86 | 86 | 1008.4 |
| 20260903031005 | 23 | 157 | 0.0 | 0.0 | 0.00 | 0.89 | 0.86 | 85 | 1008.4 |
| 20260903030506 | 23 | 157 | 0.0 | 0.0 | 0.00 | 0.89 | 0.86 | 85 | 1008.4 |
| 20260903030005 | 23 | 157 | 0.0 | 0.0 | 0.00 | 0.89 | 0.86 | 85 | 1008.4 |
| 20260903025506 | 23 | 157 | 0.0 | 0.0 | 0.00 | 0.89 | 0.86 | 85 | 1008.4 |
| 20260903025006 | 23 | 157 | 0.0 | 0.0 | 0.00 | 0.89 | 0.86 | 85 | 1008.4 |
| 20260903024506 | 23 | 157 | 0.0 | 0.0 | 0.00 | 0.89 | 0.86 | 85 | 1008.4 |
| 20260903024006 | 23 | 157 | 0.0 | 0.0 | 0.00 | 0.89 | 0.86 | 84 | 1008.4 |
| 20260903023506 | 23 | 157 | 0.0 | 0.0 | 0.00 | 0.89 | 0.86 | 84 | 1008.4 |
| 20260903023006 | 23 | 157 | 0.0 | 0.0 | 0.00 | 0.89 | 0.86 | 84 | 1008.4 |
| 20260903022006 | 24 | 157 | 0.0 | 0.0 | 0.00 | 0.89 | 0.86 | 84 | 1008.2 |
| 20260903021505 | 24 | 157 | 0.0 | 0.0 | 0.00 | 0.89 | 0.86 | 84 | 1008.2 |
| 20260903021006 | 24 | 157 | 0.0 | 0.0 | 0.00 | 0.89 | 0.86 | 83 | 1008.2 |
| 20260903020506 | 24 | 157 | 0.0 | 0.0 | 0.00 | 0.89 | 0.86 | 83 | 1008.1 |
| 20260903020007 | 24 | 157 | 0.0 | 0.0 | 0.00 | 0.89 | 0.86 | 82 | 1008.1 |
| 20260903015507 | 24 | 157 | 0.0 | 0.0 | 0.00 | 0.89 | 0.86 | 82 | 1008.0 |
| 20260903015007 | 24 | 157 | 0.0 | 0.0 | 0.00 | 0.89 | 0.86 | 81 | 1008.0 |
| 20260903014506 | 25 | 157 | 0.0 | 0.0 | 0.00 | 0.89 | 0.86 | 81 | 1008.0 |
| 20260903014009 | 25 | 157 | 0.0 | 0.0 | 0.00 | 0.89 | 0.86 | 80 | 1007.9 |
| 20260903013006 | 25 | 157 | 0.0 | 0.0 | 0.00 | 0.89 | 0.86 | 79 | 1008.0 |
| 20260903012506 | 25 | 157 | 0.0 | 0.0 | 0.00 | 0.89 | 0.86 | 79 | 1007.9 |
| 20260903012007 | 25 | 157 | 0.0 | 0.0 | 0.00 | 0.89 | 0.86 | 78 | 1007.9 |
| 20260903011006 | 25 | 157 | 0.0 | 0.0 | 0.00 | 0.89 | 0.86 | 77 | 1007.8 |
| 20260903010506 | 26 | 157 | 0.0 | 0.0 | 0.00 | 0.89 | 0.86 | 76 | 1007.7 |
| 20260903010006 | 26 | 157 | 0.0 | 0.0 | 0.00 | 0.89 | 0.86 | 76 | 1007.7 |
| 20260903005505 | 26 | 157 | 0.0 | 0.0 | 0.00 | 0.89 | 0.86 | 76 | 1007.7 |
| 20260903005005 | 26 | 157 | 0.0 | 0.0 | 0.00 | 0.89 | 0.86 | 75 | 1007.7 |
| 20260903004505 | 26 | 157 | 0.0 | 0.0 | 0.00 | 0.89 | 0.86 | 74 | 1007.7 |
| 20260903004006 | 26 | 157 | 0.0 | 0.0 | 0.00 | 0.89 | 0.86 | 74 | 1007.6 |
| 20260903003006 | 27 | 157 | 0.0 | 1.6 | 0.00 | 0.89 | 0.86 | 74 | 1007.6 |
| 20260903002506 | 27 | 157 | 0.0 | 3.2 | 0.00 | 0.89 | 0.86 | 73 | 1007.6 |
| 20260903002006 | 27 | 157 | 0.0 | 3.2 | 0.00 | 0.89 | 0.86 | 73 | 1007.6 |
| 20260903001005 | 27 | 157 | 1.6 | 3.2 | 0.00 | 0.89 | 0.86 | 72 | 1007.5 |
| 20260903000006 | 28 | 157 | 1.6 | 3.2 | 0.00 | 0.89 | 0.86 | 72 | 1007.6 |
| 20260902235006 | 28 | 157 | 1.6 | 8.0 | 0.00 | 0.89 | 0.86 | 71 | 1007.6 |
| 20260902234006 | 28 | 157 | 1.6 | 9.7 | 0.00 | 0.89 | 0.86 | 71 | 1007.6 |
| 20260902233506 | 28 | 155 | 3.2 | 4.8 | 0.00 | 0.89 | 0.86 | 70 | 1007.6 |
| 20260902233006 | 28 | 155 | 1.6 | 4.8 | 0.00 | 0.89 | 0.86 | 71 | 1007.7 |
| 20260902232505 | 28 | 155 | 1.6 | 4.8 | 0.00 | 0.89 | 0.86 | 72 | 1007.6 |
| 20260902232006 | 28 | 155 | 1.6 | 4.8 | 0.00 | 0.89 | 0.86 | 72 | 1007.6 |
| 20260902231506 | 28 | 155 | 1.6 | 4.8 | 0.00 | 0.89 | 0.86 | 71 | 1007.6 |
| 20260902230505 | 28 | 155 | 1.6 | 4.8 | 0.00 | 0.89 | 0.86 | 71 | 1007.6 |
| 20260902230006 | 28 | 155 | 1.6 | 3.2 | 0.00 | 0.89 | 0.86 | 71 | 1007.6 |
| 20260902225505 | 28 | 155 | 1.6 | 4.8 | 0.00 | 0.89 | 0.86 | 70 | 1007.6 |
| 20260902225006 | 28 | 155 | 1.6 | 4.8 | 0.00 | 0.89 | 0.86 | 69 | 1007.6 |
| 20260902224505 | 28 | 155 | 0.0 | 4.8 | 0.00 | 0.89 | 0.86 | 70 | 1007.5 |
| 20260902224006 | 29 | 155 | 0.0 | 3.2 | 0.00 | 0.89 | 0.86 | 70 | 1007.5 |
| 20260902223506 | 29 | 155 | 3.2 | 4.8 | 0.00 | 0.89 | 0.86 | 69 | 1007.5 |
| 20260902223006 | 29 | 155 | 0.0 | 3.2 | 0.00 | 0.89 | 0.86 | 69 | 1007.5 |
| 20260902222506 | 29 | 155 | 3.2 | 4.8 | 0.00 | 0.89 | 0.86 | 68 | 1007.5 |
| 20260902221506 | 29 | 155 | 1.6 | 9.7 | 0.00 | 0.89 | 0.86 | 70 | 1007.5 |
| 20260902221006 | 29 | 153 | 3.2 | 9.7 | 0.00 | 0.89 | 0.86 | 69 | 1007.5 |
| 20260902220505 | 29 | 153 | 3.2 | 8.0 | 0.00 | 0.89 | 0.86 | 69 | 1007.5 |
| 20260902220006 | 29 | 152 | 1.6 | 8.0 | 0.00 | 0.89 | 0.86 | 70 | 1007.5 |
| 20260902215505 | 29 | 161 | 3.2 | 8.0 | 0.00 | 0.89 | 0.86 | 69 | 1007.5 |
| 20260902215006 | 29 | 161 | 1.6 | 3.2 | 0.00 | 0.89 | 0.86 | 69 | 1007.5 |
| 20260902214506 | 29 | 161 | 3.2 | 8.0 | 0.00 | 0.89 | 0.86 | 68 | 1007.6 |
| 20260902214005 | 30 | 161 | 3.2 | 8.0 | 0.00 | 0.89 | 0.86 | 68 | 1007.6 |
| 20260902213506 | 30 | 161 | 1.6 | 3.2 | 0.00 | 0.89 | 0.86 | 69 | 1007.6 |
| 20260902213006 | 30 | 161 | 4.8 | 9.7 | 0.00 | 0.89 | 0.86 | 67 | 1007.7 |
| 20260902212506 | 30 | 158 | 1.6 | 8.0 | 0.00 | 0.89 | 0.86 | 67 | 1007.7 |
| 20260902212006 | 30 | 141 | 4.8 | 9.7 | 0.00 | 0.89 | 0.86 | 67 | 1007.7 |
| 20260902211506 | 30 | 126 | 1.6 | 4.8 | 0.00 | 0.89 | 0.86 | 68 | 1007.8 |
| 20260902211006 | 30 | 117 | 1.6 | 4.8 | 0.00 | 0.89 | 0.86 | 68 | 1007.8 |
| 20260902210506 | 30 | 116 | 3.2 | 4.8 | 0.00 | 0.89 | 0.86 | 67 | 1007.9 |
| 20260902210006 | 30 | 162 | 3.2 | 8.0 | 0.00 | 0.89 | 0.86 | 66 | 1007.9 |
| 20260902205506 | 30 | 162 | 1.6 | 4.8 | 0.00 | 0.89 | 0.86 | 67 | 1007.9 |
| 20260902205005 | 30 | 162 | 1.6 | 8.0 | 0.00 | 0.89 | 0.86 | 68 | 1008.0 |
| 20260902204506 | 30 | 163 | 4.8 | 9.7 | 0.00 | 0.89 | 0.86 | 66 | 1008.0 |
| 20260902204005 | 30 | 160 | 1.6 | 8.0 | 0.00 | 0.89 | 0.86 | 66 | 1007.9 |
| 20260902203505 | 30 | 160 | 3.2 | 8.0 | 0.00 | 0.89 | 0.86 | 66 | 1007.9 |
| 20260902201506 | 30 | 163 | 3.2 | 8.0 | 0.00 | 0.89 | 0.86 | 67 | 1008.0 |
| 20260902201005 | 30 | 163 | 1.6 | 4.8 | 0.00 | 0.89 | 0.86 | 67 | 1007.9 |
| 20260902200506 | 30 | 163 | 1.6 | 9.7 | 0.00 | 0.89 | 0.86 | 66 | 1008.0 |
| 20260902200006 | 30 | 176 | 3.2 | 9.7 | 0.00 | 0.89 | 0.86 | 64 | 1008.1 |
| 20260902195506 | 30 | 155 | 1.6 | 4.8 | 0.00 | 0.89 | 0.86 | 66 | 1008.1 |
| 20260902195009 | 30 | 155 | 3.2 | 4.8 | 0.00 | 0.89 | 0.86 | 64 | 1008.1 |
| 20260902194506 | 30 | 154 | 1.6 | 3.2 | 0.00 | 0.89 | 0.86 | 66 | 1008.1 |
| 20260902194006 | 30 | 154 | 0.0 | 3.2 | 0.00 | 0.89 | 0.86 | 64 | 1008.2 |
| 20260902193506 | 30 | 154 | 1.6 | 4.8 | 0.00 | 0.89 | 0.86 | 65 | 1008.3 |
| 20260902193005 | 30 | 154 | 1.6 | 4.8 | 0.00 | 0.89 | 0.86 | 61 | 1008.2 |
| 20260902192006 | 30 | 154 | 1.6 | 4.8 | 0.00 | 0.89 | 0.86 | 64 | 1008.2 |
| 20260902191505 | 30 | 154 | 1.6 | 3.2 | 0.00 | 0.89 | 0.86 | 60 | 1008.2 |
| 20260902190505 | 31 | 154 | 3.2 | 4.8 | 0.00 | 0.89 | 0.86 | 60 | 1008.5 |
| 20260902190005 | 31 | 154 | 1.6 | 4.8 | 0.00 | 0.89 | 0.86 | 59 | 1008.5 |
| 20260902185505 | 31 | 154 | 1.6 | 4.8 | 0.00 | 0.89 | 0.86 | 61 | 1008.7 |
| 20260902185006 | 31 | 154 | 1.6 | 9.7 | 0.00 | 0.89 | 0.86 | 61 | 1008.9 |
| 20260902184505 | 31 | 158 | 3.2 | 9.7 | 0.00 | 0.89 | 0.86 | 60 | 1009.0 |
| 20260902184005 | 31 | 178 | 1.6 | 3.2 | 0.00 | 0.89 | 0.86 | 58 | 1009.1 |
| 20260902183506 | 31 | 178 | 1.6 | 3.2 | 0.00 | 0.89 | 0.86 | 63 | 1008.9 |
| 20260902183005 | 31 | 215 | 0.0 | 3.2 | 0.00 | 0.89 | 0.86 | 63 | 1008.7 |
| 20260902182505 | 31 | 319 | 0.0 | 3.2 | 0.00 | 0.89 | 0.86 | 62 | 1008.8 |
| 20260902181505 | 31 | 319 | 1.6 | 4.8 | 0.00 | 0.89 | 0.86 | 60 | 1008.9 |
| 20260902180505 | 30 | 163 | 1.6 | 3.2 | 0.00 | 0.89 | 0.86 | 63 | 1009.1 |
| 20260902175505 | 30 | 164 | 1.6 | 8.0 | 0.00 | 0.89 | 0.86 | 62 | 1009.2 |
| 20260902175006 | 30 | 169 | 1.6 | 8.0 | 0.00 | 0.89 | 0.86 | 63 | 1009.4 |
| 20260902173006 | 28 | 175 | 1.6 | 8.0 | 0.00 | 0.89 | 0.86 | 70 | 1009.5 |
| 20260902172505 | 28 | 163 | 1.6 | 8.0 | 0.00 | 0.89 | 0.86 | 69 | 1009.5 |
| 20260902172006 | 28 | 168 | 3.2 | 11.3 | 0.00 | 0.89 | 0.86 | 70 | 1009.7 |
| 20260902171505 | 28 | 149 | 1.6 | 8.0 | 0.00 | 0.89 | 0.86 | 71 | 1009.7 |
| 20260902170506 | 27 | 175 | 4.8 | 8.0 | 0.00 | 0.89 | 0.86 | 69 | 1009.7 |
| 20260902170006 | 27 | 173 | 4.8 | 9.7 | 0.00 | 0.89 | 0.86 | 71 | 1009.8 |
| 20260902165505 | 27 | 167 | 4.8 | 9.7 | 0.00 | 0.89 | 0.86 | 70 | 1009.7 |
| 20260902165005 | 27 | 164 | 3.2 | 9.7 | 0.00 | 0.89 | 0.86 | 71 | 1009.7 |
| 20260902164505 | 27 | 159 | 3.2 | 8.0 | 0.00 | 0.89 | 0.86 | 71 | 1009.6 |
| 20260902164006 | 27 | 171 | 3.2 | 8.0 | 0.00 | 0.89 | 0.86 | 73 | 1009.6 |
| 20260902163505 | 26 | 173 | 3.2 | 8.0 | 0.00 | 0.89 | 0.86 | 74 | 1009.5 |
| 20260902163005 | 26 | 173 | 3.2 | 8.0 | 0.00 | 0.89 | 0.86 | 75 | 1009.5 |
| 20260902162006 | 25 | 171 | 1.6 | 8.0 | 0.00 | 0.89 | 0.86 | 77 | 1009.5 |
| 20260902161006 | 25 | 160 | 3.2 | 8.0 | 0.00 | 0.89 | 0.86 | 79 | 1009.6 |
| 20260902160506 | 25 | 187 | 3.2 | 8.0 | 0.00 | 0.89 | 0.86 | 79 | 1009.6 |
| 20260902160008 | 25 | 170 | 3.2 | 8.0 | 0.00 | 0.89 | 0.86 | 79 | 1009.6 |
| 20260902155505 | 24 | 139 | 3.2 | 11.3 | 0.00 | 0.89 | 0.86 | 81 | 1009.7 |
| 20260902155005 | 23 | 171 | 3.2 | 11.3 | 0.00 | 0.89 | 0.86 | 82 | 1009.7 |
| 20260902154006 | 23 | 171 | 3.2 | 11.3 | 0.00 | 0.89 | 0.86 | 85 | 1009.5 |
| 20260902153505 | 23 | 167 | 3.2 | 9.7 | 0.00 | 0.89 | 0.86 | 88 | 1009.5 |
| 20260902153006 | 22 | 166 | 4.8 | 9.7 | 0.00 | 0.89 | 0.86 | 90 | 1009.6 |
| 20260902152506 | 22 | 169 | 4.8 | 9.7 | 0.00 | 0.89 | 0.86 | 90 | 1009.5 |
| 20260902152006 | 22 | 164 | 4.8 | 8.0 | 0.00 | 0.89 | 0.86 | 92 | 1009.5 |
| 20260902151505 | 21 | 173 | 3.2 | 9.7 | 0.00 | 0.89 | 0.86 | 92 | 1009.5 |
| 20260902151005 | 21 | 177 | 3.2 | 12.9 | 0.00 | 0.89 | 0.86 | 92 | 1009.5 |
| 20260902150505 | 21 | 171 | 4.8 | 12.9 | 0.00 | 0.89 | 0.86 | 92 | 1009.4 |
| 20260902150006 | 21 | 161 | 3.2 | 9.7 | 0.00 | 0.89 | 0.86 | 92 | 1009.5 |
| 20260902145505 | 21 | 173 | 3.2 | 9.7 | 0.00 | 0.89 | 0.86 | 93 | 1009.5 |
| 20260902144505 | 20 | 156 | 4.8 | 9.7 | 0.00 | 0.89 | 0.86 | 93 | 1009.5 |
| 20260902143505 | 20 | 163 | 1.6 | 9.7 | 0.00 | 0.89 | 0.86 | 92 | 1009.7 |
| 20260902143006 | 20 | 165 | 1.6 | 8.0 | 0.00 | 0.89 | 0.86 | 93 | 1009.7 |
| 20260902142505 | 20 | 162 | 3.2 | 8.0 | 0.00 | 0.89 | 0.86 | 92 | 1009.8 |
| 20260902141505 | 20 | 151 | 3.2 | 8.0 | 0.00 | 0.89 | 0.86 | 92 | 1009.7 |
| 20260902141005 | 20 | 113 | 1.6 | 3.2 | 0.00 | 0.89 | 0.86 | 93 | 1009.9 |
| 20260902140505 | 19 | 113 | 0.0 | 4.8 | 0.00 | 0.89 | 0.86 | 93 | 1010.0 |
| 20260902140005 | 19 | 113 | 3.2 | 9.7 | 0.00 | 0.89 | 0.86 | 93 | 1009.9 |
| 20260902135505 | 19 | 145 | 1.6 | 9.7 | 0.00 | 0.89 | 0.86 | 93 | 1009.9 |
| 20260902135006 | 19 | 161 | 1.6 | 4.8 | 0.00 | 0.89 | 0.86 | 93 | 1010.0 |
| 20260902134006 | 19 | 173 | 3.2 | 8.0 | 0.00 | 0.89 | 0.86 | 93 | 1010.1 |
| 20260902133505 | 18 | 174 | 1.6 | 4.8 | 0.00 | 0.89 | 0.86 | 93 | 1010.1 |
| 20260902133006 | 18 | 185 | 0.0 | 1.6 | 0.00 | 0.89 | 0.86 | 93 | 1009.9 |
| 20260902132505 | 18 | 185 | 1.6 | 4.8 | 0.00 | 0.89 | 0.86 | 93 | 1009.8 |
| 20260902132005 | 18 | 25 | 1.6 | 8.0 | 0.00 | 0.89 | 0.86 | 93 | 1009.7 |
| 20260902131505 | 18 | 54 | 1.6 | 8.0 | 0.00 | 0.89 | 0.86 | 93 | 1010.0 |
| 20260902131006 | 18 | 179 | 0.0 | 4.8 | 0.00 | 0.89 | 0.86 | 93 | 1010.3 |
| 20260902130505 | 18 | 39 | 0.0 | 1.6 | 0.00 | 0.89 | 0.86 | 93 | 1010.3 |
| 20260902130005 | 18 | 38 | 0.0 | 3.2 | 0.00 | 0.89 | 0.86 | 93 | 1010.2 |
| 20260902125511 | 17 | 38 | 0.0 | 1.6 | 0.00 | 0.89 | 0.86 | 93 | 1010.1 |
| 20260902125006 | 17 | 38 | 0.0 | 0.0 | 0.00 | 0.89 | 0.86 | 93 | 1010.4 |
| 20260902124505 | 17 | 38 | 0.0 | 0.0 | 0.00 | 0.89 | 0.86 | 93 | 1010.7 |
| 20260902124005 | 17 | 38 | 0.0 | 0.0 | 0.00 | 0.89 | 0.86 | 93 | 1010.5 |
| 20260902123006 | 17 | 38 | 0.0 | 0.0 | 0.00 | 0.89 | 0.86 | 93 | 1010.5 |
| 20260902122505 | 17 | 38 | 0.0 | 0.0 | 0.00 | 0.89 | 0.86 | 92 | 1010.4 |
| 20260902122005 | 17 | 38 | 0.0 | 0.0 | 0.00 | 0.89 | 0.86 | 92 | 1009.8 |
| 20260902121505 | 17 | 38 | 0.0 | 0.0 | 0.00 | 0.89 | 0.86 | 93 | 1009.7 |
| 20260902120505 | 17 | 38 | 0.0 | 1.6 | 0.00 | 0.89 | 0.86 | 93 | 1009.4 |
| 20260902120005 | 17 | 38 | 0.0 | 0.0 | 0.00 | 0.89 | 0.86 | 93 | 1009.0 |
| 20260902115505 | 17 | 38 | 0.0 | 0.0 | 0.00 | 0.89 | 0.86 | 92 | 1009.2 |
| 20260902115006 | 17 | 38 | 0.0 | 1.6 | 0.00 | 0.89 | 0.86 | 92 | 1009.3 |
| 20260902114505 | 17 | 38 | 0.0 | 1.6 | 0.00 | 0.89 | 0.86 | 92 | 1009.5 |
| 20260902113505 | 17 | 38 | 0.0 | 1.6 | 0.00 | 0.89 | 0.86 | 92 | 1009.6 |
| 20260902113005 | 17 | 38 | 1.6 | 4.8 | 0.00 | 0.89 | 0.86 | 92 | 1009.6 |
| 20260902112505 | 17 | 40 | 0.0 | 3.2 | 0.00 | 0.89 | 0.86 | 92 | 1009.6 |
| 20260902112006 | 17 | 40 | 1.6 | 4.8 | 0.00 | 0.89 | 0.86 | 92 | 1009.4 |
| 20260902111506 | 17 | 348 | 1.6 | 4.8 | 0.00 | 0.89 | 0.86 | 92 | 1009.4 |
| 20260902111006 | 17 | 339 | 1.6 | 4.8 | 0.03 | 0.89 | 0.86 | 92 | 1009.7 |
| 20260902110505 | 17 | 355 | 1.6 | 4.8 | 0.08 | 0.89 | 0.86 | 92 | 1009.9 |
| 20260902105005 | 17 | 140 | 0.0 | 0.0 | 0.08 | 0.89 | 0.86 | 92 | 1010.8 |
| 20260902104506 | 17 | 140 | 0.0 | 0.0 | 0.08 | 0.89 | 0.86 | 92 | 1011.2 |
| 20260902104006 | 17 | 140 | 0.0 | 3.2 | 0.08 | 0.89 | 0.86 | 92 | 1011.4 |
| 20260902103505 | 17 | 140 | 1.6 | 3.2 | 0.08 | 0.89 | 0.86 | 92 | 1010.7 |
| 20260902102505 | 17 | 140 | 1.6 | 4.8 | 0.08 | 0.89 | 0.86 | 92 | 1011.4 |
| 20260902102005 | 17 | 140 | 3.2 | 8.0 | 0.08 | 0.89 | 0.86 | 92 | 1011.7 |
| 20260902101505 | 17 | 162 | 6.4 | 9.7 | 0.08 | 0.89 | 0.86 | 92 | 1011.6 |
| 20260902101006 | 17 | 164 | 3.2 | 14.5 | 0.05 | 0.86 | 0.84 | 92 | 1011.3 |
| 20260902100505 | 17 | 175 | 9.7 | 14.5 | 0.00 | 0.81 | 0.79 | 92 | 1012.3 |
| 20260902100005 | 17 | 162 | 3.2 | 8.0 | 0.00 | 0.81 | 0.79 | 92 | 1010.7 |
| 20260902095506 | 17 | 171 | 1.6 | 4.8 | 0.00 | 0.81 | 0.79 | 92 | 1010.5 |
| 20260902095005 | 17 | 33 | 1.6 | 3.2 | 0.00 | 0.81 | 0.79 | 92 | 1010.5 |
| 20260902094505 | 17 | 33 | 0.0 | 3.2 | 0.00 | 0.81 | 0.79 | 92 | 1010.4 |
| 20260902094006 | 17 | 33 | 0.0 | 3.2 | 0.00 | 0.81 | 0.79 | 92 | 1010.2 |
| 20260902093505 | 17 | 33 | 0.0 | 3.2 | 0.00 | 0.81 | 0.79 | 92 | 1009.8 |
| 20260902093005 | 17 | 33 | 1.6 | 3.2 | 0.00 | 0.81 | 0.79 | 92 | 1009.4 |
| 20260902092505 | 17 | 33 | 0.0 | 1.6 | 0.00 | 0.81 | 0.79 | 92 | 1009.5 |
| 20260902092006 | 17 | 33 | 0.0 | 3.2 | 0.00 | 0.81 | 0.79 | 92 | 1009.8 |
| 20260902091007 | 17 | 7 | 1.6 | 4.8 | 0.00 | 0.81 | 0.79 | 92 | 1009.7 |
| 20260902090506 | 17 | 5 | 0.0 | 3.2 | 0.00 | 0.81 | 0.79 | 92 | 1009.8 |
| 20260902090006 | 17 | 14 | 0.0 | 3.2 | 0.00 | 0.81 | 0.79 | 92 | 1009.9 |
| 20260902085006 | 17 | 40 | 1.6 | 4.8 | 0.00 | 0.81 | 0.79 | 92 | 1009.8 |